Regional Weather Roundup
Issued by NWS

Home | Current Version | Previous Version | Text Only | Print | Product List | Glossary Off
Versions: 1 2 3 4 5 6 7 8 9 10 11 12 13 14 15 16 17 18 19 20 21 22 23 24 25 26 27 28 29 30 31 32 33 34 35 36 37 38 39 40 41 42 43 44 45 46 47 48 49 50

000
ASUS45 KSLC 250810
RWRUT

UTAH REGIONAL WEATHER ROUNDUP
NATIONAL WEATHER SERVICE SALT LAKE CITY UT
200 AM MDT SAT APR 25 2015

UTZ001>011-023>025-250900-

NORTHERN UTAH

CITY           SKY/WX    TMP DP  RH WIND       PRES   REMARKS
BRIGHAM CITY   CLOUDY    45  40  82 NW15      29.80R
HILL AFB       CLOUDY    44  44  99 SW12      29.83R
LOGAN          LGT RAIN  43  40  89 W10       29.78R
OGDEN          CLOUDY    46  43  89 S10       29.81R
PROVO AIRPORT  CLOUDY    46  39  76 N16G22    29.82S
SALT LAKE CITY MOCLDY    46  42  86 CALM      29.82R
VERNAL         LGT RAIN  48  39  71 W13G24    29.76R
WENDOVER       MOCLDY    43  27  52 NW6       29.82S
HEBER CITY     MIX PCPN  41  37  87 SW6       29.82R
WEST JORDAN    CLOUDY    45  45 100 CALM      29.83S

$$

UTZ012>022-026-027-250900-

SOUTHERN/CENTRAL UTAH

CITY           SKY/WX    TMP DP  RH WIND       PRES   REMARKS
BLANDING       CLOUDY    47  35  64 S10       29.95R
BRYCE CANYON   LGT RAIN  39  35  86 CALM      29.91S
CEDAR CITY     CLOUDY    42  37  82 SE10      29.87F
DELTA          CLOUDY    45  42  89 S9        29.83S
HANKSVILLE     CLOUDY    57  34  41 SW26G32   29.80R
MILFORD        CLOUDY    46  31  55 S16       29.83R
MOAB/CYNLANDS  PTCLDY    59  30  33 W13       29.74R
PRICE          CLOUDY    44  37  76 NW3       29.81R
ST GEORGE      CLOUDY    54  46  76 SE10      29.85F
KANAB          CLOUDY    50  39  66 SW12      29.91R

$$

REGIONAL REPORTS     COLORADO/ARIZONA

CITY           SKY/WX    TMP DP  RH WIND       PRES   REMARKS
CRAIG, CO      MOCLDY    47  28  47 S12       29.77F
GRAND JUNCTION CLOUDY    51  33  50 E14       29.76S
RIFLE          PTCLDY    38  31  76 S5        29.81S WCI  34
MONTROSE       MOCLDY    38  32  79 E5        29.86R WCI  34
CORTEZ         CLOUDY    50  35  56 S17       29.91S
PAGE, AZ       CLOUDY    59  34  39 CALM      29.83S
GRAND CANYON   CLOUDY    44  35  70 S9        29.97S
KINGMAN        CLOUDY    57  39  51 S7        29.87S
FLAGSTAFF      CLOUDY    40  39  97 SW10      29.99S WCI  33

$$

REGIONAL REPORTS    NEVADA/IDAHO/WYOMING

CITY           SKY/WX    TMP DP  RH WIND       PRES   REMARKS
LAS VEGAS, NV  PTCLDY    63  38  39 S15       29.74R
ELY            CLOUDY    35  34  96 S10       29.87R WCI  27
ELKO           CLOUDY    40  36  86 W7        29.83S
POCATELLO, ID  CLOUDY    43  33  68 SW9       29.78F
BURLEY         MOCLDY    40  33  76 SW12      29.78R WCI  33
EVANSTON, WY   CLOUDY    34  32  92 SW15      29.80S FOG     WCI  24
ROCK SPRINGS   CLOUDY    39  33  79 S6        29.74S WCI  35

$$



USA.gov is the U.S. government's official web portal to all federal, state and local government web resources and services.